Location: Bay Shore Mobile Home Park
(38.5762°N, 75.0841°W)
Time: 19:26:23
(UTC+00:00)

OAO 3 Rocket - Pass Details

Date: 15 November 2025
Orbit: 613 x 661 km, 35.0° (Epoch: 08 December)

Event Time Altitude Azimuth Distance (km) Brightness Sun altitude
Rises 23:24:59 0° 256° (WSW) 2,908 8.2 -19.2°
Reaches altitude 10° 23:27:22 10° 251° (WSW) 1,993 6.8 -19.6°
Maximum altitude 23:31:53 53° 175° (S) 759 3.4 -20.5°
Enters shadow 23:32:56 43° 130° (SE) 874 3.5 -20.7°
